STARLINK-1948

Last updated on Tue Nov 24 2020 00:02:03 GMT+0000 (Coordinated Universal Time)

1 46798U 20074BM 20328.58334491 -.01091437 00000-0 -17533-1 0 9996 2 46798 53.0558 13.5628 0001162 60.8302 310.6652 15.55163355 1852

Satellite not in orbit